Wellington, UT

8:37 AM MDT on September 26, 2016 (GMT -0600)
Carbon County

Weather History for KPUC - November, 2011

Change the Weather History Date:

Wednesday, November 23, 2011

  Actual Average Record
Temperature  
Mean Temperature 37 °F -  
Max Temperature 48 °F 41 °F 60 °F (1989)
Min Temperature 26 °F 21 °F 9 °F (2003)
Degree Days  
Heating Degree Days 28    
Moisture  
Dew Point 24 °F    
Average Humidity 66    
Maximum Humidity 81    
Minimum Humidity 42    
Precipitation  
Precipitation 0.00 in - - ()
Sea Level Pressure  
Sea Level Pressure 30.32 in    
Wind  
Wind Speed 5 mph (NE)    
Max Wind Speed 9 mph    
Max Gust Speed -    
Visibility 10 miles    
Events      
Averages and records for this station are not official NWS values.
T = Trace of Precipitation, MM = Missing Value Source: NWS Daily Summary

Daily Weather History Graph

Daily Weather History Graph

Search for Another Location

Airport or City:

Trip Planner

Search our weather history database for the weather conditions in past years. The results will help you decide how hot, cold, wet, or windy it might be!

Date:

Astronomy

Nov. 23, 2011 Rise Set
Actual Time 7:15 AM MST 5:02 PM MST
Civil Twilight 6:46 AM MST 5:31 PM MST
Nautical Twilight 6:13 AM MST 6:04 PM MST
Astronomical Twilight 5:41 AM MST 6:36 PM MST
Moon 5:24 AM MST (11/23) 3:46 PM MST (11/23)
Length of Visible Light 10h 45m
Length of Day
9h 46m
Waning Crescent, 3% of the Moon is Illuminated
Nov 23
Waning Crescent
Nov 24
New
Dec 2
First Quarter
Dec 10
Full
Dec 17
Last Quarter

Hourly Weather History & Observations

Time (MST) Temp. Windchill Dew Point Humidity Pressure Visibility Wind Dir Wind Speed Gust Speed Precip Events Conditions
12:53 AM 30.0 °F 22.4 °F 23.0 °F 75% 30.39 in 10.0 mi NNE 8.1 mph - N/A   Clear
1:53 AM 28.4 °F 21.2 °F 23.0 °F 80% 30.33 in 10.0 mi NE 6.9 mph - N/A   Clear
2:53 AM 32.0 °F - 24.1 °F 73% 30.38 in - North - - N/A   Unknown
3:53 AM 28.4 °F 23.3 °F 21.2 °F 74% 30.32 in - North 4.6 mph - N/A   Unknown
4:53 AM 26.6 °F - 21.2 °F 80% 30.32 in 10.0 mi Calm Calm - N/A   Clear
5:53 AM 28.0 °F 24.2 °F 21.9 °F 78% 30.44 in 10.0 mi NNE 3.5 mph - N/A   Clear
6:53 AM 26.1 °F - 21.0 °F 81% 30.45 in 10.0 mi Calm Calm - N/A   Clear
7:53 AM 30.0 °F 25.2 °F 24.1 °F 79% 30.45 in 10.0 mi NNE 4.6 mph - N/A   Clear
8:53 AM 37.0 °F - 26.1 °F 65% 30.43 in 10.0 mi Calm Calm - N/A   Clear
9:53 AM 39.9 °F - 27.0 °F 60% 30.42 in 10.0 mi Calm Calm - N/A   Clear
10:53 AM 44.1 °F - 27.0 °F 51% 30.39 in 10.0 mi Calm Calm - N/A   Clear
11:53 AM 46.4 °F 45.2 °F 26.6 °F 46% 30.31 in 10.0 mi East 3.5 mph - N/A   Clear
1:53 PM 48.9 °F - 27.0 °F 43% 30.29 in 10.0 mi Variable 4.6 mph - N/A   Clear
2:53 PM 48.0 °F - 26.1 °F 42% 30.25 in 10.0 mi Calm Calm - N/A   Clear
3:53 PM 46.9 °F - 26.1 °F 44% 30.25 in 10.0 mi SE 5.8 mph - N/A   Clear
4:53 PM 44.1 °F 42.5 °F 26.1 °F 49% 30.26 in 10.0 mi East 3.5 mph - N/A   Clear
5:53 PM 35.1 °F 32.2 °F 23.0 °F 61% 30.30 in 10.0 mi NNE 3.5 mph - N/A   Clear
6:53 PM 34.0 °F 26.6 °F 24.1 °F 67% 30.31 in 10.0 mi NNE 9.2 mph - N/A   Clear
7:53 PM 32.0 °F 24.8 °F 23.0 °F 69% 30.29 in 10.0 mi NNE 8.1 mph - N/A   Clear
8:53 PM 33.1 °F 25.5 °F 24.1 °F 70% 30.25 in 10.0 mi NNE 9.2 mph - N/A   Clear
9:53 PM 32.0 °F 25.6 °F 24.1 °F 73% 30.23 in 10.0 mi North 6.9 mph - N/A   Clear
10:53 PM 30.0 °F 24.1 °F 23.0 °F 75% 30.21 in 10.0 mi NE 5.8 mph - N/A   Clear
11:53 PM 30.0 °F 25.2 °F 23.0 °F 75% 30.19 in 10.0 mi ENE 4.6 mph - N/A   Clear